Simultaneous Nadir Overpasses (SNOs) Predictions

Prediction of SNOs between GOES-16 and METOP-B Satellite Orbit:

Table of predicted SNOs for the next 14.0 days since TLE Epoch: 4/11/2025
Index Date Time (GOES-16) GOES-16 Lat,Lon METOP-B Lat,Lon Distance(km) Time Diff (sec)
1 04/13/2025 02:26:28 -0.07, -75.51 -0.82, -78.78 373.14 80
2 04/14/2025 02:03:11 -0.07, -75.52 0.34, -73.81 195.24 80
3 04/15/2025 14:22:04 0.07, -75.56 0.67, -78.40 323.53 80
4 04/16/2025 14:04:05 0.06, -75.57 -0.44, -73.42 245.17 80
5 04/18/2025 02:23:07 -0.06, -75.56 -0.62, -78.04 282.19 80
6 04/19/2025 01:59:48 -0.06, -75.57 0.49, -73.06 286.43 80
7 04/20/2025 14:18:41 0.05, -75.61 0.49, -77.65 231.90 80
8 04/21/2025 14:00:43 0.05, -75.63 -0.63, -72.67 337.32 80
9 04/23/2025 02:19:44 -0.05, -75.64 -0.42, -77.29 188.77 80
10 04/24/2025 01:56:26 -0.05, -75.65 0.71, -72.31 380.75 80
11 04/25/2025 14:15:18 0.05, -75.70 0.32, -76.90 136.37 80
